Tracking 20621 objects as of 29-Mar-2020
HD Live streaming from Space Station
objects crossing your sky now

SL-3 DEB

Track SL-3 DEB now!
10-day predictions


NORAD ID: 15769
Int'l Code: 1981-043C
Perigee: 832.9 km
Apogee: 921.5 km
Inclination: 81.3 °
Period: 102.4 minutes
Semi major axis: 7248 km
RCS: 0.0074 m2 (small)
Launch date: May 14, 1981
Source: Commonwealth of Independent States (former USSR) (CIS)
Launch site: PLESETSK MISSILE AND SPACE COMPLEX (PKMTR)

Note: This is SATELLITE DEBRIS
aabbcc
Your satellite tracking list
Your tracking list is empty




NASA's NSSDC Master Catalog

Two Line Element Set (TLE):
1 15769U 81043C   20089.53392905 +.00000017 +00000-0 +29940-5 0  9996
2 15769 081.2765 222.2588 0061117 206.8557 152.9445 14.06893372835275
Source of the keplerian elements: AFSPC